Time,TemperatureF,DewpointF,PressureIn,WindDirection,WindDirectionDegrees,WindSpeedMPH,WindSpeedGustMPH,Humidity,HourlyPrecipIn,Conditions,Clouds,dailyrainin,SoftwareType,DateUTC
2013-10-09 00:01:00,52.0,48.0,30.31,ENE,58,0.0,0.0,86,0.00,,,0.00,,2013-10-09 04:01:00,
2013-10-09 00:24:00,52.0,48.0,30.31,ENE,58,0.0,0.0,86,0.00,,,0.00,,2013-10-09 04:24:00,
2013-10-09 00:34:00,52.0,48.0,30.31,ENE,58,0.0,0.0,86,0.00,,,0.00,,2013-10-09 04:34:00,
2013-10-09 00:44:00,52.0,48.0,30.31,ENE,58,0.0,0.0,86,0.00,,,0.00,,2013-10-09 04:44:00,
2013-10-09 00:54:00,52.0,48.0,30.31,ENE,58,0.0,0.0,86,0.00,,,0.00,,2013-10-09 04:54:00,
2013-10-09 01:01:00,51.0,47.0,30.30,ENE,63,0.0,1.0,85,0.00,,,0.00,,2013-10-09 05:01:00,
2013-10-09 01:22:00,51.0,47.0,30.30,ENE,63,0.0,1.0,85,0.00,,,0.00,,2013-10-09 05:22:00,
2013-10-09 01:34:00,51.0,47.0,30.30,ENE,63,0.0,1.0,85,0.00,,,0.00,,2013-10-09 05:34:00,
2013-10-09 01:42:00,51.0,47.0,30.30,ENE,63,0.0,1.0,85,0.00,,,0.00,,2013-10-09 05:42:00,
2013-10-09 01:52:00,51.0,47.0,30.30,ENE,63,0.0,1.0,85,0.00,,,0.00,,2013-10-09 05:52:00,
2013-10-09 02:01:00,51.0,46.0,30.31,NE,49,0.0,4.0,84,0.00,,,0.00,,2013-10-09 06:01:00,
2013-10-09 02:22:00,51.0,46.0,30.31,NE,49,0.0,4.0,84,0.00,,,0.00,,2013-10-09 06:22:00,
2013-10-09 02:33:00,51.0,46.0,30.31,NE,49,0.0,4.0,84,0.00,,,0.00,,2013-10-09 06:33:00,
2013-10-09 02:42:00,51.0,46.0,30.31,NE,49,0.0,4.0,84,0.00,,,0.00,,2013-10-09 06:42:00,
2013-10-09 02:52:00,51.0,46.0,30.31,NE,49,0.0,4.0,84,0.00,,,0.00,,2013-10-09 06:52:00,
2013-10-09 03:01:00,50.0,45.0,30.30,ENE,76,1.0,5.0,82,0.00,,,0.00,,2013-10-09 07:01:00,
2013-10-09 03:22:00,50.0,45.0,30.30,ENE,76,1.0,5.0,82,0.00,,,0.00,,2013-10-09 07:22:00,
2013-10-09 03:32:00,50.0,45.0,30.30,ENE,76,1.0,5.0,82,0.00,,,0.00,,2013-10-09 07:32:00,
2013-10-09 03:42:00,50.0,45.0,30.30,ENE,76,1.0,5.0,82,0.00,,,0.00,,2013-10-09 07:42:00,
2013-10-09 03:52:00,50.0,45.0,30.30,ENE,76,1.0,5.0,82,0.00,,,0.00,,2013-10-09 07:52:00,
2013-10-09 04:01:00,50.0,44.0,30.29,NE,47,2.0,5.0,81,0.00,,,0.00,,2013-10-09 08:01:00,
2013-10-09 04:23:00,50.0,44.0,30.29,NE,47,2.0,5.0,81,0.00,,,0.00,,2013-10-09 08:23:00,
2013-10-09 04:32:00,50.0,44.0,30.29,NE,47,2.0,5.0,81,0.00,,,0.00,,2013-10-09 08:32:00,
2013-10-09 04:42:00,50.0,44.0,30.29,NE,47,2.0,5.0,81,0.00,,,0.00,,2013-10-09 08:42:00,
2013-10-09 04:53:00,50.0,44.0,30.29,NE,47,2.0,5.0,81,0.00,,,0.00,,2013-10-09 08:53:00,
2013-10-09 05:01:00,50.0,44.0,30.30,ENE,73,0.0,4.0,81,0.00,,,0.00,,2013-10-09 09:01:00,
2013-10-09 05:22:00,50.0,44.0,30.30,ENE,73,0.0,4.0,81,0.00,,,0.00,,2013-10-09 09:22:00,
2013-10-09 05:33:00,50.0,44.0,30.30,ENE,73,0.0,4.0,81,0.00,,,0.00,,2013-10-09 09:33:00,
2013-10-09 05:43:00,50.0,44.0,30.30,ENE,73,0.0,4.0,81,0.00,,,0.00,,2013-10-09 09:43:00,
2013-10-09 05:53:00,50.0,44.0,30.30,ENE,73,0.0,4.0,81,0.00,,,0.00,,2013-10-09 09:53:00,
2013-10-09 06:01:00,49.0,44.0,30.29,ENE,65,0.0,5.0,82,0.00,,,0.00,,2013-10-09 10:01:00,
2013-10-09 06:23:00,49.0,44.0,30.29,ENE,65,0.0,5.0,82,0.00,,,0.00,,2013-10-09 10:23:00,
2013-10-09 06:33:00,49.0,44.0,30.29,ENE,65,0.0,5.0,82,0.00,,,0.00,,2013-10-09 10:33:00,
2013-10-09 06:43:00,49.0,44.0,30.29,ENE,65,0.0,5.0,82,0.00,,,0.00,,2013-10-09 10:43:00,
2013-10-09 06:53:00,49.0,44.0,30.29,ENE,65,0.0,5.0,82,0.00,,,0.00,,2013-10-09 10:53:00,
2013-10-09 07:01:00,49.0,43.0,30.33,ENE,65,0.0,1.0,81,0.00,,,0.00,,2013-10-09 11:01:00,
2013-10-09 07:22:00,49.0,43.0,30.33,ENE,65,0.0,1.0,81,0.00,,,0.00,,2013-10-09 11:22:00,
2013-10-09 07:33:00,49.0,43.0,30.33,ENE,65,0.0,1.0,81,0.00,,,0.00,,2013-10-09 11:33:00,
2013-10-09 07:42:00,49.0,43.0,30.33,ENE,65,0.0,1.0,81,0.00,,,0.00,,2013-10-09 11:42:00,
2013-10-09 07:52:00,49.0,43.0,30.33,ENE,65,0.0,1.0,81,0.00,,,0.00,,2013-10-09 11:52:00,
2013-10-09 08:22:00,48.0,43.0,30.33,NE,42,1.0,5.0,84,0.00,,,0.00,,2013-10-09 12:22:00,
2013-10-09 08:32:00,48.0,43.0,30.33,NE,42,1.0,5.0,84,0.00,,,0.00,,2013-10-09 12:32:00,
2013-10-09 08:42:00,48.0,43.0,30.33,NE,42,1.0,5.0,84,0.00,,,0.00,,2013-10-09 12:42:00,
2013-10-09 08:52:00,48.0,43.0,30.33,NE,42,1.0,5.0,84,0.00,,,0.00,,2013-10-09 12:52:00,
2013-10-09 09:02:00,49.0,43.0,30.34,East,96,4.0,9.0,79,0.00,,,0.00,,2013-10-09 13:02:00,
2013-10-09 09:22:00,49.0,43.0,30.34,East,96,4.0,9.0,79,0.00,,,0.00,,2013-10-09 13:22:00,
2013-10-09 09:33:00,49.0,43.0,30.34,East,96,4.0,9.0,79,0.00,,,0.00,,2013-10-09 13:33:00,
2013-10-09 09:42:00,49.0,43.0,30.34,East,96,4.0,9.0,79,0.00,,,0.00,,2013-10-09 13:42:00,
2013-10-09 09:52:00,49.0,43.0,30.34,East,96,4.0,9.0,79,0.00,,,0.00,,2013-10-09 13:52:00,
2013-10-09 10:01:00,51.0,44.0,30.35,ENE,66,3.0,6.0,78,0.00,,,0.00,,2013-10-09 14:01:00,
2013-10-09 10:22:00,51.0,44.0,30.35,ENE,66,3.0,6.0,78,0.00,,,0.00,,2013-10-09 14:22:00,
2013-10-09 10:32:00,51.0,44.0,30.35,ENE,66,3.0,6.0,78,0.00,,,0.00,,2013-10-09 14:32:00,
2013-10-09 10:42:00,51.0,44.0,30.35,ENE,66,3.0,6.0,78,0.00,,,0.00,,2013-10-09 14:42:00,
2013-10-09 10:52:00,51.0,44.0,30.35,ENE,66,3.0,6.0,78,0.00,,,0.00,,2013-10-09 14:52:00,
2013-10-09 11:02:00,53.0,47.0,30.35,ENE,67,4.0,7.0,81,0.00,,,0.00,,2013-10-09 15:02:00,
2013-10-09 11:22:00,53.0,47.0,30.35,ENE,67,4.0,7.0,81,0.00,,,0.00,,2013-10-09 15:22:00,
2013-10-09 11:33:00,53.0,47.0,30.35,ENE,67,4.0,7.0,81,0.00,,,0.00,,2013-10-09 15:33:00,
2013-10-09 11:53:00,53.0,47.0,30.35,ENE,67,4.0,7.0,81,0.00,,,0.00,,2013-10-09 15:53:00,
2013-10-09 12:01:00,54.0,48.0,30.34,ENE,75,2.0,11.0,81,0.00,,,0.00,,2013-10-09 16:01:00,
2013-10-09 12:24:00,54.0,48.0,30.34,ENE,75,2.0,11.0,81,0.00,,,0.00,,2013-10-09 16:24:00,
2013-10-09 12:33:00,54.0,48.0,30.34,ENE,75,2.0,11.0,81,0.00,,,0.00,,2013-10-09 16:33:00,
2013-10-09 12:42:00,54.0,48.0,30.34,ENE,75,2.0,11.0,81,0.00,,,0.00,,2013-10-09 16:42:00,
2013-10-09 12:53:00,54.0,48.0,30.34,ENE,75,2.0,11.0,81,0.00,,,0.00,,2013-10-09 16:53:00,
2013-10-09 13:01:00,56.0,50.0,30.32,ENE,72,1.0,13.0,81,0.00,,,0.00,,2013-10-09 17:01:00,
2013-10-09 13:23:00,56.0,50.0,30.32,ENE,72,1.0,13.0,81,0.00,,,0.00,,2013-10-09 17:23:00,
2013-10-09 13:33:00,56.0,50.0,30.32,ENE,72,1.0,13.0,81,0.00,,,0.00,,2013-10-09 17:33:00,
2013-10-09 13:42:00,56.0,50.0,30.32,ENE,72,1.0,13.0,81,0.00,,,0.00,,2013-10-09 17:42:00,
2013-10-09 13:52:00,56.0,50.0,30.32,ENE,72,1.0,13.0,81,0.00,,,0.00,,2013-10-09 17:52:00,
2013-10-09 14:01:00,57.0,49.0,30.32,NE,56,1.0,6.0,74,0.00,,,0.00,,2013-10-09 18:01:00,
2013-10-09 14:22:00,57.0,49.0,30.32,NE,56,1.0,6.0,74,0.00,,,0.00,,2013-10-09 18:22:00,
2013-10-09 14:32:00,57.0,49.0,30.32,NE,56,1.0,6.0,74,0.00,,,0.00,,2013-10-09 18:32:00,
2013-10-09 14:42:00,57.0,49.0,30.32,NE,56,1.0,6.0,74,0.00,,,0.00,,2013-10-09 18:42:00,
2013-10-09 14:52:00,57.0,49.0,30.32,NE,56,1.0,6.0,74,0.00,,,0.00,,2013-10-09 18:52:00,
2013-10-09 15:01:00,57.0,49.0,30.32,ESE,117,1.0,5.0,75,0.00,,,0.00,,2013-10-09 19:01:00,
2013-10-09 15:22:00,57.0,49.0,30.32,ESE,117,1.0,5.0,75,0.00,,,0.00,,2013-10-09 19:22:00,
2013-10-09 15:32:00,57.0,49.0,30.32,ESE,117,1.0,5.0,75,0.00,,,0.00,,2013-10-09 19:32:00,
2013-10-09 15:42:00,57.0,49.0,30.32,ESE,117,1.0,5.0,75,0.00,,,0.00,,2013-10-09 19:42:00,
2013-10-09 15:53:00,57.0,49.0,30.32,ESE,117,1.0,5.0,75,0.00,,,0.00,,2013-10-09 19:53:00,
2013-10-09 16:01:00,57.0,50.0,30.31,ENE,62,2.0,7.0,76,0.00,,,0.00,,2013-10-09 20:01:00,
2013-10-09 16:22:00,57.0,50.0,30.31,ENE,62,2.0,7.0,76,0.00,,,0.00,,2013-10-09 20:22:00,
2013-10-09 16:32:00,57.0,50.0,30.31,ENE,62,2.0,7.0,76,0.00,,,0.00,,2013-10-09 20:32:00,
2013-10-09 16:43:00,57.0,50.0,30.31,ENE,62,2.0,7.0,76,0.00,,,0.00,,2013-10-09 20:43:00,
2013-10-09 16:52:00,57.0,50.0,30.31,ENE,62,2.0,7.0,76,0.00,,,0.00,,2013-10-09 20:52:00,
2013-10-09 17:01:00,57.0,50.0,30.29,NE,55,3.0,8.0,76,0.00,,,0.00,,2013-10-09 21:01:00,
2013-10-09 17:23:00,57.0,50.0,30.29,NE,55,3.0,8.0,76,0.00,,,0.00,,2013-10-09 21:23:00,
2013-10-09 17:34:00,57.0,50.0,30.29,NE,55,3.0,8.0,76,0.00,,,0.00,,2013-10-09 21:34:00,
2013-10-09 17:44:00,57.0,50.0,30.29,NE,55,3.0,8.0,76,0.00,,,0.00,,2013-10-09 21:44:00,
2013-10-09 17:54:00,57.0,50.0,30.29,NE,55,3.0,8.0,76,0.00,,,0.00,,2013-10-09 21:54:00,
2013-10-09 18:01:00,56.0,50.0,30.29,ENE,65,0.0,6.0,80,0.00,,,0.00,,2013-10-09 22:01:00,
2013-10-09 18:24:00,56.0,50.0,30.29,ENE,65,0.0,6.0,80,0.00,,,0.00,,2013-10-09 22:24:00,
2013-10-09 18:34:00,56.0,50.0,30.29,ENE,65,0.0,6.0,80,0.00,,,0.00,,2013-10-09 22:34:00,
2013-10-09 18:43:00,56.0,50.0,30.29,ENE,65,0.0,6.0,80,0.00,,,0.00,,2013-10-09 22:43:00,
2013-10-09 18:53:00,56.0,50.0,30.29,ENE,65,0.0,6.0,80,0.00,,,0.00,,2013-10-09 22:53:00,
2013-10-09 19:01:00,55.0,50.0,30.29,ENE,57,0.0,5.0,82,0.00,,,0.00,,2013-10-09 23:01:00,
2013-10-09 19:22:00,55.0,50.0,30.29,ENE,57,0.0,5.0,82,0.00,,,0.00,,2013-10-09 23:22:00,
2013-10-09 19:34:00,55.0,50.0,30.29,ENE,57,0.0,5.0,82,0.00,,,0.00,,2013-10-09 23:34:00,
2013-10-09 19:43:00,55.0,50.0,30.29,ENE,57,0.0,5.0,82,0.00,,,0.00,,2013-10-09 23:43:00,
2013-10-09 19:53:00,55.0,50.0,30.29,ENE,57,0.0,5.0,82,0.00,,,0.00,,2013-10-09 23:53:00,
2013-10-09 20:02:00,54.0,49.0,30.27,NE,56,0.0,3.0,83,0.00,,,0.00,,2013-10-10 00:02:00,
2013-10-09 20:22:00,54.0,49.0,30.27,NE,56,0.0,3.0,83,0.00,,,0.00,,2013-10-10 00:22:00,
2013-10-09 20:32:00,54.0,49.0,30.27,NE,56,0.0,3.0,83,0.00,,,0.00,,2013-10-10 00:32:00,
2013-10-09 20:42:00,54.0,49.0,30.27,NE,56,0.0,3.0,83,0.00,,,0.00,,2013-10-10 00:42:00,
2013-10-09 20:52:00,54.0,49.0,30.27,NE,56,0.0,3.0,83,0.00,,,0.00,,2013-10-10 00:52:00,
2013-10-09 21:02:00,53.0,48.0,30.27,NE,48,0.0,4.0,84,0.00,,,0.00,,2013-10-10 01:02:00,
2013-10-09 21:22:00,53.0,48.0,30.27,NE,48,0.0,4.0,84,0.00,,,0.00,,2013-10-10 01:22:00,
2013-10-09 21:32:00,53.0,48.0,30.27,NE,48,0.0,4.0,84,0.00,,,0.00,,2013-10-10 01:32:00,
2013-10-09 21:42:00,53.0,48.0,30.27,NE,48,0.0,4.0,84,0.00,,,0.00,,2013-10-10 01:42:00,
2013-10-09 21:52:00,53.0,48.0,30.27,NE,48,0.0,4.0,84,0.00,,,0.00,,2013-10-10 01:52:00,
2013-10-09 22:22:00,53.0,48.0,30.26,ENE,75,1.0,5.0,84,0.00,,,0.00,,2013-10-10 02:22:00,
2013-10-09 22:33:00,53.0,48.0,30.26,ENE,75,1.0,5.0,84,0.00,,,0.00,,2013-10-10 02:33:00,
2013-10-09 22:42:00,53.0,48.0,30.26,ENE,75,1.0,5.0,84,0.00,,,0.00,,2013-10-10 02:42:00,
2013-10-09 23:01:00,53.0,48.0,30.26,East,87,1.0,4.0,84,0.00,,,0.00,,2013-10-10 03:01:00,
2013-10-09 23:22:00,53.0,48.0,30.26,East,87,1.0,4.0,84,0.00,,,0.00,,2013-10-10 03:22:00,
2013-10-09 23:34:00,53.0,48.0,30.26,East,87,1.0,4.0,84,0.00,,,0.00,,2013-10-10 03:34:00,
2013-10-09 23:44:00,53.0,48.0,30.26,East,87,1.0,4.0,84,0.00,,,0.00,,2013-10-10 03:44:00,
2013-10-09 23:55:00,53.0,48.0,30.26,East,87,1.0,4.0,84,0.00,,,0.00,,2013-10-10 03:55:00,